Wind_Speed
7 6 5 1 9 7 13 18 25 26 27 29 31 22 19 8 6 7 6 7 10 18 20 20 23 25 24 24 25 26 27 30 29 27 28 24 23 22 23 24 25 25 22 19
10 9 6 3 5 8 15 16 19 23 25 26 27 21 14 7 12 7 4 10 15 18 19 21 25 30 30 30 28 28 29 29 29 27 27 22 21 21 22 22 23 22 21 18
12 8 8 7 6 6 8 13 18 21 24 25 27 27 14 9 7 3 7 11 17 21 23 26 30 29 29 33 32 33 31 28 27 25 24 23 23 22 22 21 19 20 18 18
17 14 12 12 10 14 9 12 15 17 23 24 25 25 23 11 19 8 14 19 18 20 26 29 30 25 30 37 33 33 32 28 28 27 23 21 21 22 20 20 20 19 17 16
19 19 18 17 19 21 18 16 17 19 21 21 24 23 22 19 17 12 13 15 20 24 27 27 25 25 33 36 39 37 34 31 30 30 24 29 23 17 18 17 20 22 19 14
17 19 19 23 15 17 20 22 16 18 22 23 26 24 15 16 11 12 10 13 18 21 23 27 30 31 36 40 39 38 37 34 28 28 27 27 25 18 19 21 22 24 20 17
12 17 20 24 27 20 11 12 14 16 23 26 24 19 15 20 4 13 18 16 17 19 27 30 32 32 35 38 39 37 37 34 30 25 22 25 24 26 23 19 18 19 17 18
10 13 21 18 22 15 9 10 15 21 26 30 25 21 18 17 7 13 20 18 20 24 28 31 33 34 34 34 39 38 38 35 33 25 22 21 24 25 21 18 20 17 18 19
15 11 19 20 23 21 16 12 17 22 21 18 20 17 12 4 17 15 17 19 23 28 32 32 36 36 40 36 35 39 39 36 33 28 24 21 22 23 12 18 16 18 17 18
10 7 14 16 18 20 17 14 18 17 21 21 20 14 10 17 18 16 18 22 28 32 37 39 41 42 40 45 47 49 43 35 34 33 26 20 22 20 17 17 20 21 19 18
11 9 11 16 18 24 20 16 17 17 14 14 12 9 10 17 17 19 21 24 28 32 38 43 45 46 44 44 39 51 44 34 28 23 24 16 18 16 16 15 16 21 20 21
7 8 11 12 12 18 21 23 26 23 10 9 11 12 16 18 20 22 25 26 31 37 42 42 45 48 48 48 48 53 54 46 25 29 24 16 12 12 13 13 18 22 21 21
9 12 12 12 13 15 19 16 15 12 13 14 14 18 15 19 22 24 25 29 34 38 40 42 46 51 52 50 49 44 33 41 23 31 31 20 14 12 15 15 21 27 27 22
12 16 14 12 14 15 19 17 17 13 16 14 12 16 22 27 23 23 27 30 34 38 42 45 46 50 52 49 45 42 36 32 39 25 36 31 24 19 25 24 23 23 24 22
18 15 13 15 17 18 22 20 21 19 16 16 16 20 26 23 24 24 27 32 36 41 44 45 43 48 49 46 45 38 38 36 33 35 36 30 23 22 20 18 23 25 28 27
16 17 15 18 17 24 24 22 23 25 22 21 20 23 25 27 25 26 30 33 37 40 42 43 46 46 44 41 42 41 39 34 33 32 34 35 28 19 30 34 35 29 27 35
18 18 16 21 25 22 26 25 19 19 16 16 15 18 24 27 28 29 32 34 37 41 43 44 49 49 46 41 38 38 37 38 38 32 31 26 19 30 26 30 27 29 33 33
24 22 21 24 26 22 20 20 15 15 14 11 16 20 22 26 29 31 33 36 39 41 42 47 52 48 39 37 38 31 39 39 39 36 33 28 29 33 32 27 25 31 30 28
13 16 16 19 21 14 14 16 14 13 13 16 20 22 24 28 31 32 35 39 41 41 43 46 48 42 39 39 31 35 33 36 36 35 34 32 28 33 27 26 22 19 21 22
17 18 19 21 19 12 12 13 14 14 12 14 19 26 27 29 32 34 37 39 39 41 43 47 44 41 40 39 35 32 32 33 33 33 32 30 28 28 25 25 23 22 21 22
19 19 17 11 14 10 13 14 16 16 18 19 23 26 27 30 34 37 38 39 40 42 46 48 46 41 41 40 35 30 31 32 33 34 34 32 31 30 28 28 24 23 26 29
22 19 17 18 19 17 15 17 18 20 22 24 26 26 28 31 35 38 39 40 42 44 46 46 43 40 41 37 32 30 31 33 35 35 35 35 32 30 30 28 26 29 32 34
30 22 18 20 20 18 15 20 18 24 27 27 26 30 33 35 38 39 41 42 44 45 46 45 42 42 41 37 31 30 32 33 35 37 37 34 33 33 32 33 34 36 38 40
35 29 28 27 22 19 24 23 24 22 21 28 33 35 36 38 39 41 44 45 45 45 46 44 42 42 40 36 31 30 33 35 36 36 34 35 36 37 37 38 39 41 43 43
34 33 32 31 29 30 27 27 22 23 36 32 37 36 34 39 40 42 44 44 45 46 46 43 42 41 39 34 31 32 33 35 36 35 36 37 39 40 41 43 44 44 45 46
34 35 36 36 34 35 35 33 32 32 33 41 35 37 37 40 41 42 44 45 45 45 42 41 40 39 38 36 35 35 36 36 36 37 37 40 41 44 47 48 49 49 50 51
Wind_Direction
182 186 168 180 14 5 357 6 356 347 338 344 345 352 2 342 114 46 53 28 24 22 20 10 7 358 349 342 347 347 339 338 334 327 324 320 317 312 313 316 316 322 323 322
195 190 143 55 23 1 356 356 347 348 340 342 349 360 359 53 136 67 27 1 13 17 14 6 6 1 0 353 350 347 341 342 336 330 326 326 317 313 314 314 321 325 323 327
202 207 191 209 271 282 339 358 349 343 334 331 336 349 358 39 175 93 32 39 17 10 4 5 6 5 5 357 353 348 346 348 340 333 330 327 318 312 313 313 324 322 324 320
242 235 267 233 269 273 296 317 329 327 330 334 334 341 346 315 326 357 51 3 5 8 0 1 3 6 1 357 353 353 351 347 347 347 345 328 318 315 314 318 320 317 317 319
262 255 271 261 247 266 272 294 307 316 325 334 337 333 341 359 360 66 38 18 15 9 358 358 10 7 360 357 357 356 350 346 346 345 341 345 324 300 306 322 322 318 320 315
249 254 260 264 271 282 274 288 299 305 311 327 325 331 355 10 11 64 23 20 12 2 357 360 2 360 359 359 357 355 349 346 343 341 336 331 339 324 310 319 323 320 318 316
274 249 243 258 262 286 300 298 284 292 301 315 334 348 358 4 89 34 27 19 15 359 356 358 356 358 356 355 352 353 347 342 337 335 332 329 330 326 303 293 310 314 310 310
270 254 257 254 260 251 234 273 294 301 307 316 320 331 360 21 28 357 355 6 7 9 2 357 355 354 357 350 351 351 346 341 334 333 334 337 329 338 334 291 306 311 314 307
275 259 245 242 254 262 272 275 293 299 309 317 312 328 342 343 352 354 2 358 7 6 4 1 1 357 351 349 329 343 342 337 333 330 331 334 327 326 305 319 309 308 311 305
252 247 233 241 253 260 269 297 310 316 308 307 304 327 356 3 357 351 355 1 6 2 2 1 2 359 350 345 340 337 336 335 335 329 322 320 326 322 322 322 316 311 309 303
253 273 271 265 257 256 265 284 299 303 311 320 313 321 349 354 343 348 357 359 359 355 353 354 357 355 348 342 338 340 334 316 322 318 310 311 325 318 329 329 328 313 307 296
267 301 320 298 272 264 271 283 288 277 289 315 324 332 340 337 339 353 352 353 352 352 351 348 349 349 347 341 339 341 343 308 316 299 297 294 315 318 322 322 325 315 310 302
285 295 295 279 263 274 274 286 282 273 280 304 331 333 327 331 340 347 346 350 351 347 344 345 345 346 343 338 344 338 330 327 298 321 349 307 298 312 302 304 315 323 327 306
279 284 280 269 268 270 268 277 273 272 283 301 319 329 325 324 335 340 343 347 345 343 342 344 344 342 336 335 339 340 338 344 344 330 348 330 288 299 294 296 309 321 320 300
283 284 282 283 287 273 267 278 263 261 276 310 302 316 320 319 330 333 339 345 340 342 340 339 339 337 334 332 334 334 335 340 345 343 338 337 326 303 291 295 317 314 318 308
267 275 285 275 271 273 280 285 259 274 286 305 311 313 302 313 319 332 339 336 337 336 336 336 335 337 336 332 332 333 332 336 345 345 336 339 326 320 310 299 296 296 306 311
262 267 272 287 261 277 284 286 274 269 284 315 317 314 307 313 320 330 330 331 332 335 334 331 331 335 335 333 330 334 342 338 342 341 341 338 331 324 324 319 297 295 302 307
254 273 280 265 273 276 267 266 276 301 288 321 323 312 307 315 322 322 326 329 331 331 328 329 333 335 335 335 333 332 334 336 338 341 338 337 336 336 327 318 304 305 310 309
251 254 257 272 267 276 265 262 261 275 292 290 296 307 314 316 316 319 325 326 328 327 326 330 335 336 336 335 329 330 333 335 339 335 339 338 333 338 335 329 329 321 323 315
248 256 265 271 268 263 253 251 253 266 285 278 285 297 306 311 314 320 321 320 320 323 327 333 336 335 334 333 332 330 333 335 336 334 335 333 334 333 335 331 334 334 329 320
258 263 279 274 269 269 259 262 268 279 279 280 289 299 308 309 314 315 314 317 320 325 330 335 335 332 332 331 331 329 332 334 334 333 333 332 333 332 332 328 326 330 327 324
262 265 267 266 276 283 286 284 287 287 290 294 297 304 307 307 308 309 317 322 326 329 331 332 332 331 331 329 327 328 331 332 334 334 335 335 335 330 329 330 324 322 320 320
267 273 268 275 290 291 285 304 296 303 304 300 301 301 303 305 307 316 320 324 327 328 329 329 330 331 331 330 328 328 330 330 332 334 334 335 334 333 335 332 328 325 323 320
266 272 275 283 294 300 303 307 299 297 305 301 294 300 304 306 313 320 321 324 325 326 328 329 329 330 329 327 322 325 327 328 330 331 333 334 336 334 332 331 330 325 322 319
263 271 277 280 284 286 290 297 301 289 304 297 302 302 308 311 313 316 318 320 323 325 327 327 327 327 326 324 321 323 325 328 328 329 330 331 331 330 329 328 327 322 318 316
262 265 268 273 279 281 284 289 295 289 293 295 303 304 309 308 311 313 316 318 320 322 324 324 324 326 326 324 323 324 324 326 327 327 327 327 328 327 326 325 322 320 318 317
Height
5945 5946 5945 5942 5940 5939 5938 5937 5935 5932 5929 5925 5923 5921 5921 5918 5917 5916 5915 5913 5908 5900 5896 5895 5890 5885 5878 5872 5864 5860 5855 5849 5844 5839 5835 5830 5827 5824 5822 5818 5814 5811 5808 5805
5945 5946 5945 5942 5940 5938 5937 5936 5934 5931 5927 5925 5922 5921 5919 5915 5914 5913 5910 5907 5903 5899 5896 5892 5884 5878 5870 5866 5861 5856 5851 5845 5841 5836 5831 5826 5823 5820 5817 5813 5811 5808 5805 5802
5942 5944 5944 5942 5940 5937 5936 5935 5933 5931 5927 5926 5923 5922 5922 5917 5915 5910 5907 5904 5900 5897 5892 5886 5879 5873 5868 5864 5858 5854 5848 5842 5838 5832 5827 5823 5819 5816 5814 5809 5806 5804 5801 5798
5944 5943 5944 5941 5938 5936 5935 5934 5932 5929 5928 5926 5923 5920 5918 5917 5914 5911 5907 5902 5898 5894 5888 5882 5876 5870 5867 5862 5856 5850 5844 5839 5834 5828 5822 5818 5815 5812 5809 5806 5803 5799 5797 5794
5942 5942 5940 5938 5936 5934 5934 5932 5931 5928 5927 5926 5922 5920 5917 5914 5909 5908 5908 5904 5897 5891 5887 5881 5873 5868 5866 5860 5851 5846 5841 5837 5831 5825 5821 5815 5810 5807 5804 5802 5799 5795 5793 5791
5937 5938 5937 5934 5935 5930 5932 5932 5929 5927 5925 5924 5922 5920 5917 5914 5910 5908 5905 5902 5898 5892 5886 5878 5871 5867 5862 5856 5849 5843 5837 5834 5829 5823 5818 5813 5808 5804 5802 5799 5796 5793 5790 5787
5932 5932 5930 5929 5932 5929 5930 5929 5928 5928 5924 5922 5919 5917 5915 5912 5907 5904 5903 5899 5896 5891 5884 5877 5871 5865 5859 5853 5847 5840 5835 5830 5826 5821 5815 5809 5804 5801 5797 5795 5793 5790 5787 5784
5929 5930 5927 5927 5927 5930 5928 5927 5926 5923 5920 5918 5915 5915 5914 5911 5907 5904 5901 5898 5893 5888 5881 5875 5869 5863 5857 5851 5845 5838 5832 5827 5821 5816 5811 5806 5802 5795 5792 5792 5791 5788 5785 5782
5927 5926 5925 5925 5925 5927 5925 5924 5923 5920 5918 5914 5913 5913 5912 5910 5907 5903 5898 5894 5889 5883 5879 5873 5865 5860 5853 5849 5842 5834 5828 5822 5816 5810 5806 5804 5800 5795 5791 5790 5787 5785 5780 5776
5924 5925 5924 5923 5922 5923 5922 5922 5920 5917 5915 5912 5910 5910 5910 5906 5903 5900 5895 5891 5884 5879 5874 5869 5863 5857 5851 5844 5835 5829 5823 5817 5811 5807 5802 5797 5796 5793 5789 5785 5784 5780 5776 5772
5922 5922 5923 5920 5920 5918 5919 5918 5916 5915 5912 5909 5908 5909 5907 5904 5900 5896 5891 5887 5882 5877 5872 5865 5859 5855 5846 5838 5833 5824 5814 5806 5800 5795 5795 5792 5788 5786 5784 5782 5779 5777 5772 5769
5919 5918 5918 5917 5916 5915 5915 5915 5913 5911 5910 5907 5907 5907 5904 5900 5896 5891 5887 5883 5878 5871 5867 5863 5857 5850 5840 5832 5827 5818 5806 5783 5791 5783 5783 5784 5781 5782 5780 5777 5773 5770 5766 5763
5916 5916 5915 5915 5915 5913 5912 5911 5910 5909 5907 5906 5905 5903 5901 5897 5893 5889 5885 5880 5874 5870 5866 5861 5852 5843 5835 5827 5824 5816 5808 5778 5771 5786 5786 5782 5776 5775 5774 5771 5768 5763 5760 5756
5913 5912 5912 5912 5911 5910 5908 5907 5907 5906 5905 5904 5903 5900 5897 5894 5892 5888 5884 5878 5872 5867 5862 5855 5847 5840 5832 5825 5820 5812 5807 5798 5789 5786 5778 5778 5773 5769 5768 5765 5761 5756 5753 5749
5911 5909 5909 5909 5908 5905 5902 5903 5903 5903 5903 5903 5901 5897 5895 5893 5889 5885 5881 5874 5868 5863 5859 5853 5847 5840 5830 5820 5813 5810 5805 5798 5789 5779 5780 5774 5770 5766 5762 5758 5756 5752 5746 5743
5908 5907 5907 5906 5904 5900 5899 5899 5900 5899 5900 5898 5896 5895 5892 5890 5886 5881 5876 5872 5867 5863 5857 5850 5844 5836 5827 5818 5810 5804 5799 5794 5788 5785 5781 5769 5761 5764 5758 5755 5750 5747 5742 5740
5904 5903 5904 5903 5900 5898 5897 5896 5895 5897 5897 5896 5892 5890 5887 5886 5882 5877 5874 5870 5866 5859 5852 5846 5838 5831 5821 5814 5806 5798 5792 5786 5783 5782 5775 5768 5764 5759 5754 5750 5745 5741 5737 5732
5899 5898 5898 5899 5897 5894 5893 5892 5893 5894 5893 5892 5888 5887 5884 5882 5879 5874 5871 5866 5861 5855 5848 5840 5831 5824 5817 5809 5802 5795 5789 5783 5777 5771 5768 5765 5760 5753 5747 5742 5738 5734 5729 5725
5894 5894 5894 5893 5891 5890 5890 5890 5891 5891 5891 5889 5887 5884 5881 5879 5876 5871 5866 5860 5856 5850 5844 5836 5827 5818 5812 5806 5798 5792 5786 5780 5773 5768 5762 5757 5753 5749 5744 5739 5734 5729 5725 5722
5890 5890 5890 5887 5885 5887 5887 5887 5888 5888 5889 5886 5884 5881 5880 5877 5871 5866 5862 5857 5851 5846 5839 5830 5820 5813 5806 5799 5793 5788 5782 5777 5771 5766 5762 5756 5750 5745 5741 5736 5731 5726 5722 5719
5886 5885 5885 5883 5882 5884 5885 5886 5886 5886 5887 5882 5880 5877 5875 5869 5865 5861 5857 5851 5844 5838 5830 5821 5813 5807 5800 5793 5787 5782 5778 5772 5767 5762 5757 5751 5745 5740 5736 5732 5727 5723 5719 5714
5881 5881 5882 5880 5879 5880 5882 5883 5884 5882 5880 5878 5875 5873 5868 5863 5859 5854 5849 5842 5835 5828 5821 5814 5808 5802 5795 5788 5782 5777 5773 5767 5763 5757 5752 5746 5741 5736 5731 5726 5721 5717 5712 5707
5874 5876 5877 5877 5877 5877 5878 5879 5878 5875 5874 5871 5869 5867 5862 5856 5851 5845 5840 5835 5827 5822 5816 5809 5802 5795 5789 5782 5777 5772 5767 5763 5758 5752 5746 5741 5736 5731 5725 5719 5714 5708 5702 5697
5867 5869 5870 5871 5872 5872 5871 5871 5870 5869 5868 5866 5863 5860 5854 5848 5842 5837 5832 5826 5820 5815 5809 5802 5796 5790 5784 5778 5773 5768 5763 5758 5753 5747 5741 5735 5730 5724 5718 5712 5706 5700 5694 5688
5860 5862 5863 5864 5865 5864 5865 5865 5863 5862 5861 5858 5855 5850 5845 5839 5834 5830 5825 5820 5814 5808 5801 5795 5789 5782 5777 5771 5766 5762 5756 5751 5746 5741 5735 5730 5725 5719 5712 5706 5700 5693 5686 5680
5853 5854 5855 5857 5858 5858 5858 5858 5858 5855 5853 5850 5847 5842 5837 5831 5826 5822 5817 5812 5807 5801 5795 5789 5782 5776 5770 5765 5761 5756 5750 5745 5740 5735 5729 5724 5717 5711 5704 5698 5690 5683 5676 5668